Regional Weather Roundup
Issued by NWS

Home | Current Version | Previous Version | Graphics & Text | Print | Product List | Glossary On
Versions: 1 2 3 4 5 6 7 8 9 10 11 12 13 14 15 16 17 18 19 20 21 22 23 24 25 26 27 28 29 30 31 32 33 34 35 36 37 38 39 40 41 42 43 44 45 46 47 48 49 50
000
ASUS43 KOAX 080102
RWRNE

WEATHER ROUNDUP FOR NEBRASKA
NATIONAL WEATHER SERVICE OMAHA NE
700 PM CST SUN FEB 07 2016

NOTES: SATELLITE DATA IS BEING USED TO AUGMENT CLOUD COVER ABOVE
       12000 FEET.
       "FAIR" INDICATES FEW OR NO CLOUDS BELOW 12,000 FEET WITH NO
       SIGNIFICANT WEATHER AND/OR OBSTRUCTIONS TO VISIBILITY.

  * THESE STATIONS DO NOT REPORT WEATHER SUCH AS RAIN...SNOW OR FOG.

NEZ001>004-019>022-054>056-080200-
NEBRASKA PANHANDLE

CITY           SKY/WX    TMP DP  RH WIND       PRES   REMARKS
SCOTTSBLUFF    CLEAR     29  16  58 NW18      30.34R WCI  16
ALLIANCE       CLEAR     29  14  53 NW25G31   30.26R WCI  14
CHADRON        CLEAR     32  14  47 NW22G31   30.30R WCI  19
SIDNEY         CLEAR     25  14  63 NW18      30.30R WCI  11
$$

NEZ057>060-069>072-079>082-080200-
SOUTHWEST NEBRASKA

CITY           SKY/WX    TMP DP  RH WIND       PRES   REMARKS
NORTH PLATTE   CLEAR     32  17  54 NW15      30.19R WCI  22
IMPERIAL       CLEAR     31  16  54 NW23G32   30.27R WCI  18
MCCOOK         CLEAR     33  20  58 NW23      30.22R WCI  21
$$

NEZ005>010-023>029-035>040-094-080200-
NORTH CENTRAL NEBRASKA

CITY           SKY/WX    TMP DP  RH WIND       PRES   REMARKS
VALENTINE      CLEAR     33  18  53 NW25G36   30.15R WCI  20
AINSWORTH      PTCLDY    34  17  49 NW32G43   30.13R WCI  20
BROKEN BOW     CLEAR     36  14  40 NW30G41   30.12R WCI  23
ORD            PTCLDY    36  19  50 NW29G44   30.08R WCI  23
$$

NEZ041-046>049-061>064-073>077-083>087-080200-
SOUTH CENTRAL NEBRASKA

CITY           SKY/WX    TMP DP  RH WIND       PRES   REMARKS
GRAND ISLAND   PTCLDY    37  19  48 NW30G41   30.09R WCI  24
HASTINGS       CLEAR     36  19  50 NW23G35   30.09R WCI  24
HEBRON         MOCLDY    37  24  59 NW12G18   30.09R WCI  29
$$

NEZ011>018-030>034-042>045-080200-
NORTHEAST NEBRASKA

CITY           SKY/WX    TMP DP  RH WIND       PRES   REMARKS
NORFOLK        CLOUDY    36  25  64 NW25G36   29.99R WCI  24
BLAIR          FLURRIES  34  29  82 NW23G32   29.97R WCI  22
COLUMBUS *     MOCLDY    36  21  55 NW16      30.02S WCI  26
FREMONT        FLURRIES  33  28  83 NW23      30.01S WCI  20
TEKAMAH        CLOUDY    34  28  79 NW26      29.98R WCI  21
$$

NEZ050>053-065>068-078-088>093-080200-
SOUTHEAST NEBRASKA

CITY           SKY/WX    TMP DP  RH WIND       PRES   REMARKS
LINCOLN        CLOUDY    37  28  70 NW14      30.05R WCI  28
OMAHA EPPLEY   CLOUDY    35  29  78 NW31      29.98R WCI  22
BEATRICE       CLOUDY    36  28  72 NW12      30.05S WCI  28
FALLS CITY     CLOUDY    38  28  67 NW17G31   30.02S WCI  28
NEBRASKA CITY  FLURRIES  34  31  88 NW24G32   30.00S WCI  22
$$

NEZ044-045-051>053-067-080200-
OMAHA AREA

CITY           SKY/WX    TMP DP  RH WIND       PRES   REMARKS
OMAHA EPPLEY   CLOUDY    35  29  78 NW31      29.98R WCI  22
BLAIR          FLURRIES  34  29  82 NW23G32   29.97R WCI  22
FREMONT        FLURRIES  33  28  83 NW23      30.01S WCI  20
OFFUTT AFB     LGT RAIN  35  29  80 NW16G33   29.99R WCI  25
WAHOO          FLURRIES  35  30  84 N17G28    30.02R WCI  24
$$



USA.gov is the U.S. government's official web portal to all federal, state and local government web resources and services.